Location: Unspecified
(47.4992°N, 121.7766°W)
Time: 17:44:59
(UTC-08:00)

Cosmos 2058 - Pass Details

Date: 31 January 2021
Orbit: 561 x 584 km, 82.5° (Epoch: 05 March)

Event Time Altitude Azimuth Distance (km) Brightness Sun altitude
Rises 19:48:11 0° 203° (SSW) 2,786 6.7 -27.2°
Reaches altitude 10° 19:50:27 10° 210° (SSW) 1,888 5.8 -27.6°
Enters shadow 19:54:01 44° 265° (W) 811 4.0 -28.2°
